GW5844 Weather Reports


time (UTC)temp
C
wind
direction
speed
KPH
gust
KPH
rain 1hr
cm
rain 24hr
cm
rain mn
cm
humidity
%
barometer
mb
20260505183019 25 250 8.0 16.1 0.00 0.00 0.00 37 1017.0
20260505181503 23 235 8.0 17.7 0.00 0.00 0.00 38 1017.2
20260505180008 24 82 6.4 24.1 0.00 0.00 0.00 38 1017.6
20260505174510 25 340 6.4 25.7 0.00 0.00 0.00 37 1017.9
20260505173039 24 248 11.3 22.5 0.00 0.00 0.00 31 1017.9
20260505171527 24 274 12.9 22.5 0.00 0.00 0.00 34 1018.1
20260505170014 23 281 6.4 12.9 0.00 0.00 0.00 40 1017.8
20260505164508 23 335 3.2 17.7 0.00 0.00 0.00 39 1017.7
20260505163019 23 254 6.4 12.9 0.00 0.00 0.00 44 1018.0
20260505161516 23 153 6.4 12.9 0.00 0.00 0.00 45 1018.1
20260505153009 22 195 4.8 12.9 0.00 0.00 0.00 49 1018.6
20260505151509 22 129 4.8 9.7 0.00 0.00 0.00 54 1018.8
20260505124515 16 229 3.2 6.4 0.00 0.00 0.00 71 1018.1
20260505123027 15 141 0.0 3.2 0.00 0.00 0.00 74 1018.0
20260505121526 13 38 0.0 0.0 0.00 0.00 0.00 80 1017.9
20260505120052 11 38 0.0 1.6 0.00 0.00 0.00 85 1017.8
20260505114512 10 57 1.6 3.2 0.00 0.00 0.00 89 1017.7
20260505113027 8 135 0.0 1.6 0.00 0.00 0.00 91 1017.6
20260505111521 8 135 0.0 1.6 0.00 0.00 0.00 91 1017.6
20260505101522 6 131 0.0 0.0 0.00 0.00 0.00 91 1017.4
20260505100027 6 131 0.0 0.0 0.00 0.00 0.00 90 1017.3
20260505094524 7 131 0.0 0.0 0.00 0.00 0.00 90 1017.3
20260505093010 7 131 0.0 1.6 0.00 0.00 0.00 89 1017.3
20260505091524 7 131 0.0 1.6 0.00 0.00 0.00 90 1017.2
20260505090035 7 131 0.0 0.0 0.00 0.00 0.00 89 1017.0
20260505084516 7 131 0.0 0.0 0.00 0.00 0.00 89 1016.8
20260505083017 8 131 0.0 0.0 0.00 0.00 0.00 88 1016.7
20260505081512 8 131 0.0 0.0 0.00 0.00 0.00 87 1016.7
20260505080013 8 131 0.0 0.0 0.00 0.00 0.00 86 1016.7
20260505074514 8 131 0.0 1.6 0.00 0.00 0.00 84 1016.6
20260505073028 8 131 0.0 0.0 0.00 0.00 0.00 84 1016.6
20260505071519 9 131 0.0 0.0 0.00 0.00 0.00 83 1016.6
20260505070012 10 120 0.0 3.2 0.00 0.00 0.00 82 1016.7
20260505064532 10 199 0.0 0.0 0.00 0.00 0.00 82 1016.7
20260505063018 10 199 0.0 0.0 0.00 0.00 0.00 83 1016.6
20260505061530 10 200 0.0 0.0 0.00 0.00 0.00 82 1016.7
20260505060019 10 199 0.0 0.0 0.00 0.00 0.00 80 1016.5
20260505054512 11 200 0.0 0.0 0.00 0.00 0.00 78 1016.6
20260505053016 11 200 0.0 0.0 0.00 0.00 0.00 78 1016.7
20260505051521 11 199 0.0 0.0 0.00 0.00 0.00 75 1016.9
20260505041516 12 204 0.0 0.0 0.00 0.00 0.00 71 1016.8
20260505040021 12 204 0.0 0.0 0.00 0.00 0.00 70 1016.8
20260505034523 13 203 0.0 0.0 0.00 0.00 0.00 68 1017.0
20260505033022 13 204 0.0 0.0 0.00 0.00 0.00 67 1017.0
20260505031539 14 204 0.0 0.0 0.00 0.00 0.00 64 1017.0
20260505030020 15 203 0.0 1.6 0.00 0.00 0.00 63 1017.0
20260505024532 15 192 0.0 3.2 0.00 0.00 0.00 65 1017.1
20260505023027 14 163 0.0 0.0 0.00 0.00 0.00 67 1016.8
20260505021527 14 163 0.0 0.0 0.00 0.00 0.00 66 1016.7
20260505020026 14 163 0.0 0.0 0.00 0.00 0.00 65 1016.7
20260505014523 15 163 0.0 0.0 0.00 0.00 0.00 62 1016.5
20260505013004 15 163 0.0 0.0 0.00 0.00 0.00 61 1016.2
20260505011504 16 163 0.0 0.0 0.00 0.00 0.00 59 1016.1
20260505010009 17 162 0.0 0.0 0.00 0.00 0.00 56 1016.1
20260505004533 17 162 0.0 0.0 0.00 0.00 0.00 52 1016.0
20260505003017 18 163 0.0 1.6 0.00 0.00 0.00 51 1015.9
20260505001519 20 156 0.0 0.0 0.00 0.00 0.00 48 1015.9
20260505000009 21 155 0.0 1.6 0.00 0.00 0.00 45 1015.8
20260504234509 22 203 1.6 4.8 0.00 0.00 0.00 41 1015.7
20260504233016 23 205 3.2 8.0 0.00 0.00 0.00 37 1015.5
20260504231517 23 188 1.6 6.4 0.00 0.00 0.00 37 1015.5
20260504230018 23 150 1.6 6.4 0.00 0.00 0.00 35 1015.5
20260504224509 24 205 1.6 11.3 0.00 0.00 0.00 34 1015.4
20260504223012 24 224 1.6 9.7 0.00 0.00 0.00 31 1015.5
20260504221516 24 188 4.8 11.3 0.00 0.00 0.00 30 1015.5
20260504220020 25 234 6.4 16.1 0.00 0.00 0.00 29 1015.6
20260504214526 25 280 6.4 17.7 0.00 0.00 0.00 30 1015.6
20260504213008 25 300 8.0 14.5 0.00 0.00 0.00 30 1015.4
20260504211513 25 145 3.2 12.9 0.00 0.00 0.00 31 1015.4
20260504210022 25 226 3.2 9.7 0.00 0.00 0.00 29 1015.4
20260504204522 26 231 4.8 11.3 0.00 0.00 0.00 30 1015.8
20260504203027 25 200 3.2 8.0 0.00 0.00 0.00 29 1015.8
20260504201508 26 233 4.8 9.7 0.00 0.00 0.00 29 1015.9
20260504200015 26 144 4.8 9.7 0.00 0.00 0.00 29 1016.0
20260504194520 25 147 3.2 9.7 0.00 0.00 0.00 30 1016.1
20260504193024 25 240 4.8 11.3 0.00 0.00 0.00 32 1016.2
20260504191525 25 104 3.2 16.1 0.00 0.00 0.00 30 1016.5
20260504190011 25 182 4.8 11.3 0.00 0.00 0.00 31 1016.7
20260504184518 24 282 3.2 12.9 0.00 0.00 0.00 29 1016.9